Location: *
(46.0770°N, 1.6444°E)
Time: 01:49:29
(UTC+00:00)

Nadezhda 3 Rocket - Pass Details

Date: 16 September 2019
Orbit: 958 x 999 km, 82.9° (Epoch: 15 October)

Event Time Altitude Azimuth Distance (km) Brightness Sun altitude
Exits shadow 21:25:18 60° 11° (N) 1,100 4.3 -32.1°
Drops below altitude 10° 21:30:15 10° 9° (N) 2,716 6.7 -32.7°
Sets 21:32:47 0° 9° (N) 3,672 7.5 -33.0°
